$Date,$Time,DM0201B,DM0203B,DM0205B,DM0207B,DM0209B
05/11/99,00:00:01,23,325,-25,1,960
05/11/99,00:05:01,24,325,-25,1,960
05/11/99,00:10:01,14,325,-25,1,960
05/11/99,00:15:01,24,288,-25,1,960
05/11/99,00:20:01,2,288,-25,1,960
05/11/99,00:25:01,14,299,-25,1,960
05/11/99,00:30:01,4,299,-25,1,960
05/11/99,00:35:01,25,282,-25,1,960
05/11/99,00:40:01,9,282,-25,1,960
05/11/99,00:45:01,21,282,-25,1,960
05/11/99,00:50:01,11,282,-25,1,960
05/11/99,00:55:01,25,272,-25,1,960
05/11/99,01:00:01,16,255,-25,1,960
05/11/99,01:05:01,29,291,-25,1,960
05/11/99,01:10:01,29,291,-25,1,960
05/11/99,01:15:01,16,301,-25,1,960
05/11/99,01:20:01,27,301,-25,1,960
05/11/99,01:25:01,27,304,-25,1,960
05/11/99,01:30:01,28,315,-25,1,960
05/11/99,01:35:01,16,283,-25,1,960
05/11/99,01:40:01,16,283,-25,1,960
05/11/99,01:45:01,16,283,-25,1,960
05/11/99,01:50:01,16,283,-25,1,960
05/11/99,01:55:01,16,245,-25,1,960
05/11/99,02:00:01,27,247,-25,1,960
05/11/99,02:05:01,17,257,-25,1,960
05/11/99,02:10:01,17,282,-25,1,960
05/11/99,02:15:01,17,282,-25,1,960
05/11/99,02:20:01,17,282,-25,1,960
05/11/99,02:25:01,17,234,-25,1,960
05/11/99,02:30:01,6,246,-25,1,960
05/11/99,02:35:01,6,233,-25,1,960
05/11/99,02:40:01,6,233,-25,1,960
05/11/99,02:45:01,21,206,-25,1,960
05/11/99,02:50:01,23,191,-25,1,960
05/11/99,02:55:01,3,191,-25,1,960
05/11/99,03:00:01,3,204,-25,1,960
05/11/99,03:05:01,3,204,-25,1,960
05/11/99,03:10:01,13,204,-25,1,960
05/11/99,03:15:01,2,204,-25,1,960
05/11/99,03:20:01,2,204,-25,1,960
05/11/99,03:25:01,2,224,-25,1,960
05/11/99,03:30:01,2,252,-25,1,960
05/11/99,03:35:01,18,281,-25,1,960
05/11/99,03:40:01,8,292,-25,1,960
05/11/99,03:45:01,8,326,-25,1,960
05/11/99,03:50:01,20,346,-25,1,960
05/11/99,03:55:01,12,35,-25,1,960
05/11/99,04:00:01,12,16,-25,1,960
05/11/99,04:05:01,12,16,-25,1,960
05/11/99,04:10:01,1,16,-25,1,960
05/11/99,04:15:01,13,328,-25,1,960
05/11/99,04:20:01,20,317,-25,1,960
05/11/99,04:25:01,9,317,-25,1,960
05/11/99,04:30:01,19,305,-25,1,960
05/11/99,04:35:01,19,315,-25,1,960
05/11/99,04:40:01,20,299,-25,1,960
05/11/99,04:45:01,10,299,-25,1,960
05/11/99,04:50:01,0,299,-25,1,960
05/11/99,04:55:01,11,299,-25,1,960
05/11/99,05:00:01,22,287,-25,1,960
05/11/99,05:05:01,12,287,-25,1,960
05/11/99,05:10:01,24,265,-25,1,960
05/11/99,05:15:01,34,265,-25,1,960
05/11/99,05:20:01,34,265,-25,1,960
05/11/99,05:25:01,34,265,-25,1,960
05/11/99,05:30:01,34,275,-25,1,960
05/11/99,05:35:01,14,298,-25,1,960
05/11/99,05:40:01,14,298,-25,1,960
05/11/99,05:45:01,14,320,-25,1,960
05/11/99,05:50:01,14,320,-25,1,960
05/11/99,05:55:01,28,298,-25,1,960
05/11/99,06:00:01,17,298,-25,1,960
05/11/99,06:05:01,17,310,-25,1,960
05/11/99,06:10:01,28,310,-25,1,960
05/11/99,06:15:01,18,310,-25,1,960
05/11/99,06:20:01,41,299,-25,1,960
05/11/99,06:25:01,42,299,-25,1,960
05/11/99,06:30:01,32,299,-25,1,960
05/11/99,06:35:01,44,299,-25,1,960
05/11/99,06:40:01,44,300,-25,1,960
05/11/99,06:45:01,33,300,-25,1,960
05/11/99,06:50:01,32,300,-25,1,960
05/11/99,06:55:01,19,288,-25,1,960
05/11/99,07:00:01,30,278,-25,1,960
05/11/99,07:05:01,40,278,-25,1,960
05/11/99,07:10:01,28,278,-25,1,960
05/11/99,07:15:01,18,278,-25,1,960
05/11/99,07:20:01,32,310,-25,1,960
05/11/99,07:25:01,32,294,-25,1,960
05/11/99,07:30:01,24,294,-25,1,960
05/11/99,07:35:01,34,294,-25,1,960
05/11/99,07:40:01,26,294,-25,1,960
05/11/99,07:45:01,26,294,-25,1,960
05/11/99,07:50:01,15,294,-25,1,960
05/11/99,07:55:01,15,294,-25,1,960
05/11/99,08:00:01,12,316,-25,1,960
05/11/99,08:05:01,12,316,-25,1,960
05/11/99,08:10:01,12,326,-25,1,960
05/11/99,08:15:01,12,326,-25,1,960
05/11/99,08:20:01,33,326,-25,1,960
05/11/99,08:25:01,22,326,-25,1,960
05/11/99,08:30:01,22,339,-25,1,958
05/11/99,08:35:01,32,339,-25,1,958
05/11/99,08:40:01,22,339,-25,1,958
05/11/99,08:45:01,22,339,-25,1,958
05/11/99,08:50:01,32,339,-25,1,958
05/11/99,08:55:01,43,339,-25,1,958
05/11/99,09:00:01,43,339,-25,1,958
05/11/99,09:05:01,43,339,-25,1,958
05/11/99,09:10:01,43,339,-25,1,958
05/11/99,09:15:01,53,339,-25,1,958
05/11/99,09:20:01,42,329,-25,1,958
05/11/99,09:25:01,52,329,-25,1,958
05/11/99,09:30:01,52,329,-25,1,958
05/11/99,09:35:01,52,329,-25,1,958
05/11/99,09:40:01,52,329,-25,1,958
05/11/99,09:45:01,64,329,-25,1,958
05/11/99,09:50:01,64,329,-25,1,958
05/11/99,09:55:01,64,318,-25,1,958
05/11/99,10:00:01,64,318,-25,1,958
05/11/99,10:05:01,64,318,-25,1,958
05/11/99,10:10:01,53,318,-25,1,958
05/11/99,10:15:01,53,318,-25,1,958
05/11/99,10:20:01,43,318,-25,1,958
05/11/99,10:25:01,33,318,-25,1,958
05/11/99,10:30:01,22,308,-25,1,958
05/11/99,10:35:01,22,308,-25,1,958
05/11/99,10:40:01,22,308,-25,1,958
05/11/99,10:45:01,47,308,-25,1,958
05/11/99,10:50:01,47,308,-25,1,958
05/11/99,10:55:01,47,297,-25,1,958
05/11/99,11:00:01,57,297,-25,1,958
05/11/99,11:05:01,47,307,-25,1,958
05/11/99,11:10:01,58,307,-25,1,958
05/11/99,11:15:01,47,307,-25,1,958
05/11/99,11:20:01,37,307,-25,1,958
05/11/99,11:25:01,48,318,-25,1,958
05/11/99,11:30:01,68,318,-25,1,958
05/11/99,11:35:01,24,318,-25,1,958
05/11/99,11:40:01,48,318,-25,1,958
05/11/99,11:45:01,48,318,-25,1,958
05/11/99,11:50:01,48,318,-25,1,958
05/11/99,11:55:01,58,318,-25,1,958
05/11/99,12:00:01,56,318,-25,1,958
05/11/99,12:05:01,56,318,-25,1,958
05/11/99,12:10:01,66,318,-25,1,958
05/11/99,12:15:01,56,318,-25,1,958
05/11/99,12:20:01,45,318,-25,1,958
05/11/99,12:25:01,65,318,-25,1,958
05/11/99,12:30:01,75,318,-25,1,958
05/11/99,12:35:01,75,308,-25,1,958
05/11/99,12:40:01,74,297,-25,1,958
05/11/99,12:45:01,63,297,-25,1,958
05/11/99,12:50:01,53,286,-25,1,958
05/11/99,12:55:01,43,286,-25,1,958
05/11/99,13:00:01,34,285,-25,1,958
05/11/99,13:05:01,52,289,-25,1,958
05/11/99,13:10:01,53,289,-25,1,958
05/11/99,13:15:01,74,289,-25,1,958
05/11/99,13:20:01,75,300,-25,1,958
05/11/99,13:25:01,83,300,-25,1,958
05/11/99,13:30:01,94,311,-25,1,958
05/11/99,13:35:01,83,311,-25,1,958
05/11/99,13:40:01,83,311,-25,1,958
05/11/99,13:45:01,93,311,-25,1,958
05/11/99,13:50:01,78,311,-25,1,958
05/11/99,13:55:01,78,311,-25,1,958
05/11/99,14:00:01,67,301,-25,1,958
05/11/99,14:05:01,54,291,-25,1,958
05/11/99,14:10:01,65,301,-25,1,958
05/11/99,14:15:01,77,312,-25,1,958
05/11/99,14:20:01,77,312,-25,1,958
05/11/99,14:25:01,57,300,-25,1,958
05/11/99,14:30:01,44,300,-25,1,958
05/11/99,14:35:01,77,310,-25,1,958
05/11/99,14:40:01,77,299,-25,1,958
05/11/99,14:45:01,77,299,-25,1,958
05/11/99,14:50:01,68,299,-25,1,958
05/11/99,14:55:01,70,299,-25,1,958
05/11/99,15:00:01,60,310,-25,1,958
05/11/99,15:05:01,70,310,-25,1,958
05/11/99,15:10:01,81,310,-25,1,958
05/11/99,15:15:01,71,310,-25,1,958
05/11/99,15:20:01,59,310,-25,1,958
05/11/99,15:25:01,48,298,-25,1,958
05/11/99,15:30:01,48,298,-25,1,958
05/11/99,15:35:01,28,286,-25,1,958
05/11/99,15:40:01,32,283,-25,1,958
05/11/99,15:45:01,35,296,-25,1,958
05/11/99,15:50:01,22,295,-25,1,958
05/11/99,15:55:01,40,306,-25,1,958
05/11/99,16:00:01,20,306,-25,1,958
05/11/99,16:05:01,20,306,-25,1,958
05/11/99,16:10:01,8,296,-25,1,958
05/11/99,16:15:01,8,296,-25,1,958
05/11/99,16:20:01,8,296,-25,1,958
05/11/99,16:25:01,30,311,-25,1,958
05/11/99,16:30:01,17,311,-25,1,958
05/11/99,16:35:01,37,311,-25,1,958
05/11/99,16:40:01,25,338,-25,1,958
05/11/99,16:45:01,25,324,-25,1,958
05/11/99,16:50:01,32,319,-25,1,958
05/11/99,16:55:01,18,319,-25,1,958
05/11/99,17:00:01,17,309,-25,1,958
05/11/99,17:05:01,18,307,-25,1,958
05/11/99,17:10:01,7,307,-25,1,958
05/11/99,17:15:01,7,296,-25,1,958
05/11/99,17:20:01,7,296,-25,1,958
05/11/99,17:25:01,7,312,-25,1,958
05/11/99,17:30:01,7,339,-25,1,958
05/11/99,17:35:01,7,339,-25,1,958
05/11/99,17:40:01,7,339,-25,1,958
05/11/99,17:45:01,26,349,-25,1,958
05/11/99,17:50:01,13,15,-25,1,958
05/11/99,17:55:01,3,359,-25,1,958
05/11/99,18:00:01,3,359,-25,1,958
05/11/99,18:05:01,3,359,-25,1,958
05/11/99,18:10:01,4,359,-25,1,958
05/11/99,18:15:01,4,359,-25,1,958
05/11/99,18:20:01,4,134,-25,1,958
05/11/99,18:25:01,9,134,-25,1,958
05/11/99,18:30:01,7,108,-25,1,958
05/11/99,18:35:01,43,82,-25,1,958
05/11/99,18:40:01,2,108,-25,1,958
05/11/99,18:45:01,19,84,-25,1,958
05/11/99,18:50:01,30,61,-25,1,958
05/11/99,18:55:01,19,61,-25,1,958
05/11/99,19:00:01,15,85,-25,1,958
05/11/99,19:05:01,2,85,-25,1,958
05/11/99,19:10:01,36,97,-25,1,958
05/11/99,19:15:01,15,111,-25,1,958
05/11/99,19:20:01,15,101,-25,1,958
05/11/99,19:25:01,26,101,-25,1,958
05/11/99,19:30:01,47,74,-25,1,958
05/11/99,19:35:01,38,85,-25,1,958
05/11/99,19:40:01,38,85,-25,1,958
05/11/99,19:45:01,10,85,-25,1,958
05/11/99,19:50:01,0,339,-25,1,958
05/11/99,19:55:01,39,45,-25,1,958
05/11/99,20:00:01,54,45,-25,1,958
05/11/99,20:05:01,46,45,-25,1,958
05/11/99,20:10:01,78,24,-25,1,958
05/11/99,20:15:01,67,35,-25,1,958
05/11/99,20:20:01,71,24,-25,1,958
05/11/99,20:25:01,72,24,-25,1,958
05/11/99,20:30:01,72,24,-25,1,958
05/11/99,20:35:01,79,23,-25,1,958
05/11/99,20:40:01,69,36,-25,1,958
05/11/99,20:45:01,67,26,-25,1,960
05/11/99,20:50:01,65,26,-25,1,960
05/11/99,20:55:01,48,37,-25,1,960
05/11/99,21:00:01,58,14,-25,1,960
05/11/99,21:05:01,82,24,-25,1,960
05/11/99,21:10:01,70,24,-25,1,960
05/11/99,21:15:01,70,24,-25,1,960
05/11/99,21:20:01,43,2,-25,1,960
05/11/99,21:25:01,62,11,-25,1,960
05/11/99,21:30:01,74,11,-25,1,960
05/11/99,21:35:01,63,11,-25,1,960
05/11/99,21:40:01,24,359,-25,1,960
05/11/99,21:45:01,31,354,-25,1,960
05/11/99,21:50:01,14,315,-25,1,960
05/11/99,21:55:01,38,282,-25,1,960
05/11/99,22:00:01,38,352,-25,1,960
05/11/99,22:05:01,40,256,-25,1,960
05/11/99,22:10:01,28,245,-23,1,960
05/11/99,22:15:01,28,266,-23,1,960
05/11/99,22:20:01,4,282,-23,1,960
05/11/99,22:25:01,55,250,-23,1,960
05/11/99,22:30:01,41,275,-23,1,960
05/11/99,22:35:01,55,268,-23,1,960
05/11/99,22:40:01,8,316,-23,1,960
05/11/99,22:45:01,50,262,-23,1,960
05/11/99,22:50:01,38,278,-23,1,960
05/11/99,22:55:01,50,290,-23,1,960
05/11/99,23:00:01,61,301,-23,1,960
05/11/99,23:05:01,62,281,-23,1,960
05/11/99,23:10:01,52,304,-23,1,960
05/11/99,23:15:01,47,285,-23,1,960
05/11/99,23:20:01,40,285,-23,1,960
05/11/99,23:25:01,53,297,-23,1,960
05/11/99,23:30:01,41,333,-23,1,960
05/11/99,23:35:01,34,329,-23,1,960
05/11/99,23:40:01,19,258,-23,1,960
05/11/99,23:45:01,28,322,-23,1,960
05/11/99,23:50:01,48,322,-23,1,960
05/11/99,23:55:01,58,322,-23,1,960
05/12/99,00:00:01,59,322,-23,1,960
